Location: Litvinovka
(48.6667°N, 34.3500°E)
Time: 19:10:40
(UTC+00:00)

Cosmos 2227 - Pass Details

Date: 18 September 2020
Orbit: 836 x 859 km, 71.0° (Epoch: 22 October)

Event Time Altitude Azimuth Distance (km) Brightness Sun altitude
Rises 16:15:30 0° 194° (SSW) 3,419 7.4 -5.3°
Reaches altitude 10° 16:17:58 10° 191° (S) 2,486 6.7 -5.7°
Maximum altitude 16:23:35 60° 112° (ESE) 973 4.3 -6.6°
Drops below altitude 10° 16:29:12 10° 34° (NE) 2,490 6.4 -7.5°
Sets 16:31:41 0° 31° (NNE) 3,426 7.2 -7.9°
